Sussex, NJ

11:10 PM EDT on March 22, 2017 (GMT -0400)
Sussex

Weather History for KFWN - October, 2013

Change the Weather History Date:

Tuesday, October 22, 2013

  Actual Average Record
Temperature  
Mean Temperature 49 °F -  
Max Temperature 62 °F 60 °F 79 °F (1979)
Min Temperature 36 °F 33 °F 18 °F (1972)
Degree Days  
Heating Degree Days 16    
Moisture  
Dew Point 41 °F    
Average Humidity 81    
Maximum Humidity 100    
Minimum Humidity 51    
Precipitation  
Precipitation 0.00 in - - ()
Sea Level Pressure  
Sea Level Pressure 29.84 in    
Wind  
Wind Speed 2 mph (SW)    
Max Wind Speed 9 mph    
Max Gust Speed 16 mph    
Visibility 10 miles    
Events Rain    
Averages and records for this station are not official NWS values.
T = Trace of Precipitation, MM = Missing Value Source: NWS Daily Summary

Daily Weather History Graph

Daily Weather History Graph

Search for Another Location

Airport or City:

Trip Planner

Search our weather history database for the weather conditions in past years. The results will help you decide how hot, cold, wet, or windy it might be!

Date:

Astronomy

Oct. 22, 2013 Rise Set
Actual Time 7:18 AM EDT 6:06 PM EDT
Civil Twilight 6:50 AM EDT 6:34 PM EDT
Nautical Twilight 6:17 AM EDT 7:07 PM EDT
Astronomical Twilight 5:46 AM EDT 7:39 PM EDT
Moon 8:43 PM EDT (10/22) 10:45 AM EDT (10/22)
Length of Visible Light 11h 44m
Length of Day
10h 48m
Waning Gibbous, 87% of the Moon is Illuminated
Oct 22
Waning Gibbous
Oct 26
Last Quarter
Nov 3
New
Nov 10
First Quarter
Nov 17
Full

Hourly Weather History & Observations

Time (EDT) Temp. Windchill Dew Point Humidity Pressure Visibility Wind Dir Wind Speed Gust Speed Precip Events Conditions
12:53 AM 42.1 °F - 39.9 °F 92% 29.95 in 10.0 mi Calm Calm - N/A   Clear
1:53 AM 39.9 °F - 37.9 °F 93% 29.95 in 10.0 mi Calm Calm - N/A   Clear
2:53 AM 37.9 °F - 37.0 °F 97% 29.91 in 10.0 mi Calm Calm - N/A   Clear
3:53 AM 37.9 °F - 37.0 °F 97% 29.91 in 10.0 mi Calm Calm - N/A   Clear
4:53 AM 37.0 °F - 36.0 °F 96% 29.90 in 9.0 mi Calm Calm - N/A   Clear
5:53 AM 37.0 °F - 36.0 °F 96% 29.88 in 8.0 mi Calm Calm - N/A   Clear
6:53 AM 37.0 °F - 37.0 °F 100% 29.86 in 9.0 mi Calm Calm - N/A   Overcast
7:53 AM 41.0 °F 39.0 °F 39.9 °F 96% 29.84 in 7.0 mi SSE 3.5 mph - N/A   Overcast
8:53 AM 45.0 °F - 43.0 °F 93% 29.84 in 8.0 mi Calm Calm - N/A   Scattered Clouds
9:53 AM 52.0 °F - 48.0 °F 86% 29.83 in 10.0 mi SW 6.9 mph - N/A   Mostly Cloudy
10:53 AM 57.0 °F - 48.0 °F 72% 29.81 in 10.0 mi SW 8.1 mph - N/A   Scattered Clouds
11:53 AM 57.0 °F - 46.9 °F 69% 29.81 in 10.0 mi SW 5.8 mph - N/A   Overcast
12:53 PM 57.0 °F - 48.0 °F 72% 29.80 in 10.0 mi SSW 5.8 mph - 0.00 in Rain Light Rain
1:53 PM 59.0 °F - 48.0 °F 67% 29.78 in 10.0 mi SW 4.6 mph - 0.00 in   Scattered Clouds
2:53 PM 60.1 °F - 44.1 °F 55% 29.77 in 10.0 mi WSW 9.2 mph - 0.00 in Rain Light Rain
3:53 PM 61.0 °F - 43.0 °F 52% 29.75 in 10.0 mi SW 6.9 mph 16.1 mph 0.00 in   Clear
4:53 PM 60.1 °F - 42.1 °F 51% 29.76 in 10.0 mi Variable 3.5 mph - 0.00 in Rain Light Rain
5:53 PM 57.0 °F - 45.0 °F 64% 29.76 in 10.0 mi Calm Calm - 0.00 in   Clear
6:53 PM 51.1 °F - 44.1 °F 77% 29.78 in 10.0 mi Calm Calm - N/A   Clear
7:53 PM 51.1 °F - 39.9 °F 66% 29.80 in 10.0 mi Calm Calm - N/A   Clear
8:53 PM 46.0 °F - 37.9 °F 73% 29.82 in 10.0 mi Calm Calm - N/A   Clear
9:53 PM 39.9 °F - 37.0 °F 89% 29.84 in 10.0 mi Calm Calm - N/A   Clear
10:53 PM 39.0 °F - 35.1 °F 86% 29.85 in 10.0 mi Calm Calm - N/A   Clear
11:53 PM 36.0 °F - 34.0 °F 93% 29.84 in 10.0 mi Calm Calm - N/A   Clear